Dati Storici

Data ora Umidita' aria (%) Temperatura aria (°C) Rad globale (W/m²) Gonioanemometro (°) Tacoanemometro (m/s) Pioggia (mm)
25-06-2020 14:50 61.3 % 26.068 104.155 4.094 0 0
25-06-2020 14:40 62.6 % 26.781 61.295 2.016 0 0
25-06-2020 14:30 63.7 % 26.281 95.127 5.129 0 0
25-06-2020 14:20 65 % 25.285 67.44 1.05 0 0
25-06-2020 14:10 63.7 % 25.965 76.325 2.966 0 0
25-06-2020 14:00 66 % 25.736 86.384 0.676 0 0
25-06-2020 13:50 66.1 % 25.749 110.583 0.936 0 0
25-06-2020 13:40 67.2 % 26.488 106.593 3.484 0 0
25-06-2020 13:30 67.8 % 25.456 77.597 3.902 0 0
25-06-2020 13:20 66.7 % 25.618 50.355 1.682 0 0
25-06-2020 13:10 65.3 % 25.746 57.911 2.64 0 0
25-06-2020 13:00 67.1 % 26.067 94.524 1.714 0 0
25-06-2020 12:50 64.1 % 25.37 72.573 1.511 0 0
25-06-2020 12:40 64.7 % 25.66 90.343 1.181 0 0
25-06-2020 12:30 63.4 % 25.401 321.758 0.076 0 0
25-06-2020 12:20 61.3 % 25.938 193.314 0.773 0 0
25-06-2020 12:10 64.8 % 25.537 55.011 2.152 0 0
25-06-2020 12:00 68.1 % 24.866 128.322 1.669 0 0
25-06-2020 11:50 69.8 % 25.799 46.781 1.891 0 0
25-06-2020 11:40 69.6 % 24.781 63.93 1.133 0 0

I dati sono presentati in modo automatico a scopo informativo. In seguito a verifica i dati possono subire modifiche o essere invalidati e non riportati negli archivi definitivi.